Weather History for Versailles, OH

Change the Weather History Date:

Sunday, December 30, 2012

  Actual Average (KDAY) Record (KDAY)
Temperature  
Mean Temperature 22 °F 28 °F  
Max Temperature 26 °F 35 °F 63 °F (1972)
Min Temperature 19 °F 21 °F -9 °F (1983)
Degree Days  
Heating Degree Days 42 37  
Month to date heating degree days 1011  
Since 1 July heating degree days 2122  
Cooling Degree Days 0 0  
Month to date cooling degree days 0  
Year to date cooling degree days 891  
Moisture  
Dew Point 18 °F    
Average Humidity 86    
Maximum Humidity 100    
Minimum Humidity 69    
Precipitation  
Precipitation 0.00 in 0.10 in 2.85 in (1990)
Month to date precipitation 3.02  
Year to date precipitation 40.95  
Snow  
Snow 0.00 in 0.20 in 5.40 in (1973)
Month to date snowfall 4.3  
Since 1 July snowfall 5.3  
Snow Depth -    
Sea Level Pressure  
Sea Level Pressure 30.30 in    
Wind  
Wind Speed 13 mph (WSW)    
Max Wind Speed 21 mph    
Max Gust Speed 26 mph    
Visibility 9 miles    
Events      
T = Trace of Precipitation, MM = Missing Value Source: NWS Daily Summary

Daily Weather History Graph

Daily Weather History Graph

Search for Another Location

Airport:

Trip Planner

Search our weather history database for the weather conditions in past years. The results will help you decide how hot, cold, wet, or windy it might be!

Date:

Astronomy

Dec. 30, 2012 Rise Set
Actual Time 8:00 AM EST 5:21 PM EST
Civil Twilight 7:29 AM EST 5:52 PM EST
Nautical Twilight 6:55 AM EST 6:26 PM EST
Astronomical Twilight 6:22 AM EST 6:59 PM EST
Moon 7:52 PM EST (12/30) 9:08 AM EST (12/30)
Length of Visible Light 10h 22m
Length of Day
9h 21m
Waning Gibbous, 95% of the Moon is Illuminated
Dec 30
Waning Gibbous
Jan 4
Last Quarter
Jan 11
New
Jan 18
First Quarter
Jan 26
Full

Hourly Weather History & Observations

Time (EST) Temp. Windchill Dew Point Humidity Pressure Visibility Wind Dir Wind Speed Gust Speed Precip Events Conditions
12:15 AM 26.6 °F 13.8 °F 23.0 °F 86% 30.15 in 10.0 mi West 17.3 mph 21.9 mph N/A   Overcast
12:35 AM 24.8 °F 11.1 °F 23.0 °F 93% 30.15 in 10.0 mi West 18.4 mph 26.5 mph N/A   Overcast
1:15 AM 24.8 °F 11.1 °F 23.0 °F 93% 30.17 in 7.0 mi West 18.4 mph 25.3 mph N/A   Overcast
1:35 AM 24.8 °F 11.9 °F 23.0 °F 93% 30.17 in 7.0 mi West 16.1 mph 24.2 mph N/A   Overcast
1:55 AM 23.0 °F 9.6 °F 21.2 °F 93% 30.18 in 7.0 mi West 16.1 mph 24.2 mph N/A   Overcast
2:15 AM 23.0 °F 9.6 °F 21.2 °F 93% 30.18 in 10.0 mi West 16.1 mph - N/A   Overcast
2:35 AM 23.0 °F 8.0 °F 21.2 °F 93% 30.20 in 5.0 mi West 20.7 mph 25.3 mph N/A   Overcast
2:55 AM 23.0 °F 8.7 °F 21.2 °F 93% 30.21 in 7.0 mi West 18.4 mph 24.2 mph N/A   Overcast
3:15 AM 23.0 °F 9.2 °F 21.2 °F 93% 30.22 in 7.0 mi West 17.3 mph 21.9 mph N/A   Overcast
3:35 AM 23.0 °F 9.6 °F 21.2 °F 93% 30.22 in 7.0 mi West 16.1 mph 25.3 mph N/A   Overcast
3:55 AM 23.0 °F 10.1 °F 21.2 °F 93% 30.23 in 7.0 mi WNW 15.0 mph 19.6 mph N/A   Overcast
4:15 AM 21.2 °F 6.4 °F 21.2 °F 100% 30.24 in 7.0 mi West 18.4 mph - N/A   Overcast
4:35 AM 21.2 °F 6.8 °F 19.4 °F 93% 30.25 in 7.0 mi West 17.3 mph - N/A   Overcast
4:55 AM 21.2 °F 7.8 °F 19.4 °F 93% 30.26 in 10.0 mi West 15.0 mph - N/A   Overcast
5:15 AM 21.2 °F 8.3 °F 19.4 °F 93% 30.27 in 7.0 mi West 13.8 mph 19.6 mph N/A   Overcast
5:35 AM 21.2 °F 6.8 °F 19.4 °F 93% 30.29 in 7.0 mi West 17.3 mph 20.7 mph N/A   Overcast
5:55 AM 21.2 °F 8.3 °F 19.4 °F 93% 30.29 in 7.0 mi West 13.8 mph - N/A   Overcast
6:15 AM 21.2 °F 7.8 °F 19.4 °F 93% 30.30 in 7.0 mi West 15.0 mph - N/A   Overcast
6:35 AM 21.2 °F 8.9 °F 19.4 °F 93% 30.31 in 5.0 mi West 12.7 mph - N/A   Overcast
8:35 AM 19.4 °F 7.9 °F 17.6 °F 93% 30.34 in 10.0 mi West 10.4 mph - N/A   Overcast
8:55 AM 19.4 °F 7.9 °F 17.6 °F 93% 30.35 in 10.0 mi WSW 10.4 mph - N/A   Overcast
9:15 AM 19.4 °F 7.9 °F 17.6 °F 93% 30.36 in 10.0 mi West 10.4 mph 17.3 mph N/A   Overcast
9:35 AM 19.4 °F 8.6 °F 17.6 °F 93% 30.36 in 10.0 mi West 9.2 mph - N/A   Overcast
9:55 AM 21.2 °F 9.5 °F 17.6 °F 86% 30.36 in 10.0 mi WSW 11.5 mph 17.3 mph N/A   Overcast
10:15 AM 21.2 °F 10.1 °F 17.6 °F 86% 30.37 in 10.0 mi West 10.4 mph - N/A   Mostly Cloudy
10:35 AM 21.2 °F 10.1 °F 15.8 °F 80% 30.38 in 10.0 mi WSW 10.4 mph - N/A   Scattered Clouds
10:55 AM 21.2 °F 9.5 °F 15.8 °F 80% 30.39 in 10.0 mi WSW 11.5 mph - N/A   Clear
11:15 AM 21.2 °F 10.1 °F 17.6 °F 86% 30.39 in 10.0 mi WSW 10.4 mph - N/A   Clear
11:35 AM 21.2 °F 10.1 °F 17.6 °F 86% 30.39 in 10.0 mi WSW 10.4 mph - N/A   Clear
11:55 AM 21.2 °F 7.8 °F 17.6 °F 86% 30.39 in 10.0 mi WSW 15.0 mph - N/A   Clear
12:15 PM 21.2 °F 8.3 °F 17.6 °F 86% 30.38 in 10.0 mi WSW 13.8 mph - N/A   Clear
12:35 PM 23.0 °F 11.7 °F 17.6 °F 80% 30.37 in 10.0 mi WSW 11.5 mph - N/A   Clear
12:55 PM 23.0 °F 11.7 °F 15.8 °F 74% 30.36 in 10.0 mi WSW 11.5 mph - N/A   Clear
1:15 PM 23.0 °F 13.1 °F 17.6 °F 80% 30.35 in 10.0 mi SW 9.2 mph - N/A   Clear
1:35 PM 23.0 °F 11.1 °F 17.6 °F 80% 30.35 in 10.0 mi SW 12.7 mph - N/A   Clear
1:55 PM 23.0 °F 12.4 °F 17.6 °F 80% 30.35 in 10.0 mi SW 10.4 mph - N/A   Clear
2:15 PM 24.8 °F 15.3 °F 17.6 °F 74% 30.35 in 10.0 mi SW 9.2 mph - N/A   Clear
2:35 PM 24.8 °F 14.6 °F 17.6 °F 74% 30.36 in 10.0 mi SW 10.4 mph - N/A   Clear
2:55 PM 24.8 °F 14.6 °F 17.6 °F 74% 30.35 in 10.0 mi SW 10.4 mph 16.1 mph N/A   Clear
3:15 PM 24.8 °F 14.0 °F 17.6 °F 74% 30.34 in 10.0 mi SW 11.5 mph - N/A   Clear
3:35 PM 24.8 °F 17.9 °F 17.6 °F 74% 30.33 in 10.0 mi SW 5.8 mph - N/A   Clear
3:55 PM 26.6 °F 19.1 °F 17.6 °F 69% 30.32 in 10.0 mi SSW 6.9 mph - N/A   Clear
4:15 PM 24.8 °F 20.5 °F 17.6 °F 74% 30.31 in 10.0 mi South 3.5 mph - N/A   Clear
4:35 PM 24.8 °F 16.9 °F 17.6 °F 74% 30.32 in 10.0 mi SSW 6.9 mph - N/A   Clear
4:55 PM 23.0 °F 15.8 °F 17.6 °F 80% 30.32 in 10.0 mi SSW 5.8 mph - N/A   Clear
5:15 PM 21.2 °F 12.6 °F 17.6 °F 86% 30.31 in 10.0 mi SSW 6.9 mph - N/A   Clear
5:35 PM 21.2 °F 11.7 °F 15.8 °F 80% 30.32 in 10.0 mi SSW 8.1 mph - N/A   Clear
5:55 PM 21.2 °F 13.6 °F 15.8 °F 80% 30.32 in 10.0 mi SSW 5.8 mph - N/A   Clear
6:15 PM 21.2 °F 12.6 °F 15.8 °F 80% 30.32 in 10.0 mi SSW 6.9 mph - N/A   Clear
6:35 PM 21.2 °F 10.9 °F 17.6 °F 86% 30.33 in 10.0 mi SSW 9.2 mph - N/A   Clear
6:55 PM 21.2 °F 10.9 °F 15.8 °F 80% 30.33 in 10.0 mi SSW 9.2 mph - N/A   Clear
7:15 PM 21.2 °F 11.7 °F 17.6 °F 86% 30.34 in 10.0 mi SSW 8.1 mph - N/A   Clear
7:35 PM 21.2 °F 12.6 °F 17.6 °F 86% 30.34 in 10.0 mi SSW 6.9 mph - N/A   Clear
7:55 PM 21.2 °F 12.6 °F 17.6 °F 86% 30.34 in 10.0 mi SSW 6.9 mph - N/A   Clear
8:15 PM 23.0 °F 13.1 °F 17.6 °F 80% 30.34 in 10.0 mi SW 9.2 mph - N/A   Clear
8:35 PM 23.0 °F 11.7 °F 17.6 °F 80% 30.32 in 10.0 mi SW 11.5 mph - N/A   Clear
8:55 PM 23.0 °F 13.1 °F 19.4 °F 86% 30.31 in 10.0 mi SW 9.2 mph - N/A   Clear
9:15 PM 23.0 °F 13.9 °F 19.4 °F 86% 30.30 in 10.0 mi SSW 8.1 mph - N/A   Clear
9:35 PM 23.0 °F 15.8 °F 17.6 °F 80% 30.29 in 7.0 mi South 5.8 mph - N/A   Clear
9:55 PM 23.0 °F 13.9 °F 17.6 °F 80% 30.30 in 10.0 mi SW 8.1 mph - N/A   Clear
10:15 PM 21.2 °F 10.9 °F 17.6 °F 86% 30.29 in 10.0 mi SSW 9.2 mph - N/A   Clear
10:35 PM 21.2 °F 11.7 °F 17.6 °F 86% 30.29 in 10.0 mi SSW 8.1 mph - N/A   Clear
10:55 PM 21.2 °F 10.9 °F 17.6 °F 86% 30.29 in 10.0 mi SSW 9.2 mph - N/A   Clear
11:15 PM 21.2 °F 13.6 °F 17.6 °F 86% 30.29 in 7.0 mi SSW 5.8 mph - N/A   Clear
11:35 PM 19.4 °F 12.8 °F 17.6 °F 93% 30.29 in 10.0 mi SSW 4.6 mph - N/A   Clear
11:55 PM 21.2 °F 13.6 °F 19.4 °F 93% 30.27 in 7.0 mi South 5.8 mph - N/A   Clear